Flag for U.S.A. Weather past 2 weeks in Fayetteville, North Carolina, U.S.A.

Now
91 °F

Scattered clouds.


Feels Like: 96 °F
Forecast: 74 / 88 °F
Wind: 12 mph from West

Location: Fayetteville Regional Airport

Current Time: Jul 24, 2014 at 4:35:10 PM

Latest Report: Jul 24, 2014 at 3:53 PM


Visibility: 10 mi

Pressure: 29.82 "Hg

Humidity: 49%

Dew point: 69 °F

Location of FayettevilleLocation

Historic Weather in Fayetteville — Graph

°F

Fayetteville temperature yesterday

Maximum temperature yesterday: 88 °F (at 5:53 PM)
Minimum temperature yesterday: 75 °F (at 5:02 AM)
Average temperature yesterday: 82 °F

Past Weeks' High & Low Weather Summary

 TemperatureHumidityPressure
High99 °F (Jul 9, 3:53 PM)97% (Jul 10, 8:53 PM)30.22 "Hg (Jul 10, 8:53 PM)
Low65 °F (Jul 17, 5:53 AM)24% (Jul 9, 2:53 PM)29.76 "Hg (Jul 15, 5:53 PM)
Average79 °F74%30.02 "Hg
* Reported Jul 9 2:53 PM — Jul 24 2:53 PM, Fayetteville, Weather by CustomWeather, © 2014

Note: Actual official high and low records may vary slightly from our data, if they occured in-between our weather recording intervals... More about our weather records

Advertising

Fayetteville weather history for previous 24 hours

 ConditionsComfort  
Time TempWeatherWind HumidityBarometerVisibility
2:53 PM
Jul 24
93 °FSunny.17 mph47%29.82 "Hg10 mi
1:53 PM92 °FScattered clouds.16 mph51%29.84 "Hg10 mi
12:53 PM91 °FPassing clouds.17 mph52%29.86 "Hg10 mi
11:53 AM88 °FScattered clouds.15 mph59%29.88 "Hg10 mi
10:53 AM86 °FScattered clouds.12 mph67%29.89 "Hg10 mi
9:53 AM85 °FPassing clouds.12 mph70%29.89 "Hg10 mi
8:53 AM82 °FPassing clouds.12 mph77%29.89 "Hg10 mi
7:53 AM78 °FPartly sunny.10 mph90%29.90 "Hg10 mi
6:53 AM76 °FFog.7 mph94%29.89 "Hg6 mi
5:53 AM76 °FPassing clouds.7 mph94%29.88 "Hg9 mi
4:53 AM76 °FPassing clouds.7 mph94%29.88 "Hg10 mi
3:53 AM76 °FPassing clouds.8 mph94%29.89 "Hg10 mi
2:53 AM77 °FPassing clouds.10 mph90%29.91 "Hg10 mi
1:53 AM77 °FClear.8 mph90%29.91 "Hg10 mi
12:53 AM77 °FClear.9 mph90%29.92 "Hg10 mi
11:53 PM
Jul 23
78 °FClear.9 mph87%29.92 "Hg10 mi
10:53 PM79 °FClear.7 mph82%29.92 "Hg10 mi
9:53 PM80 °FClear.9 mph76%29.92 "Hg10 mi
8:53 PM82 °FSunny.8 mph77%29.92 "Hg10 mi
7:53 PM85 °FSunny.6 mph72%29.91 "Hg10 mi
6:53 PM87 °FSunny.10 mph61%29.93 "Hg10 mi
5:53 PM88 °FSunny.9 mph59%29.93 "Hg10 mi
4:53 PM87 °FSunny.9 mph59%29.94 "Hg10 mi
Weather by CustomWeather, © 2014

See weather overviewHow to use our weather pages